UTC,SampNum,MM/DD/YYYY,HH:MM:SS,VbatMain,VbiasPos,VbiasNeg,TC_cont,Humidity,Vrse,Vrse_std,Vk,Vk_std,Ik,Ib,Opt_PN,Opt_SN,Moxy,O2satper,TC_opt,Dphase,Bphase,Rphase,Bamp,Bpot,Ramp,Opt_rawtemp,TC_MCat,Cond,Pres,pSal,day_MC,month_MC,year_MC,time_MC,pH,CHa,NTU,flow,unix_time,TC_cont_flg,Moxy_flg,O2satper_flg,pSal_flg,pH_flg,CHa_flg,NTU_flg
2024-02-01 00:00:02+00:00,#0004340,02/01/2024,00:01:29,10.48,3.62,-3.56,14.14,87,-0.942079,1.8e-005,-1.402029,0.000183,22573.8,-2.547,5730,1914,227.253,69.824,13.499,34.394,35.143,41.839,6.696,888,672.5,432.4,13.5412,3.55376,0.055,29.4558,1,Feb,2024,00:04:41,7.88676374190274,0.79,1.2,0,1706745602,2,2,2,4,2,2,2
2024-02-01 00:20:02+00:00,#0004341,02/01/2024,00:21:29,10.5,3.62,-3.56,14.02,87,-0.94232,1.2e-005,-1.397248,0.00017,21958.89,-2.658,5730,1914,223.658,68.714,13.496,34.584,35.333,42.031,6.699,894.3,672.5,432.5,13.5369,3.81413,0.052,31.8676,1,Feb,2024,00:24:42,7.92006639132697,0.79,1.44,8.10666666666667,1706746802,1,1,1,4,1,1,1
2024-02-01 00:40:02+00:00,#0004342,02/01/2024,00:41:30,10.49,3.62,-3.56,14.53,87,-0.942918,5e-006,-1.400094,0.000156,21880.81,-2.6,5730,1914,221.067,67.918,13.496,34.721,35.47,42.168,6.698,898.7,672.5,432.5,13.5377,3.77328,0.047,31.4873,1,Feb,2024,00:44:42,7.89636238908751,0.73,1.2,19.2533333333333,1706748002,1,1,1,4,1,1,1
2024-02-01 01:00:02+00:00,#0004343,02/01/2024,01:01:29,10.51,3.62,-3.56,14.02,87,-0.943409,1.4e-005,-1.402533,0.000171,22100.31,-2.515,5730,1914,217.497,66.818,13.493,34.914,35.663,42.359,6.696,904.9,672.5,432.6,13.5361,3.67519,0.049,30.5796,1,Feb,2024,01:04:41,7.88205985130371,0.73,1.2,3.94666666666667,1706749202,1,1,1,4,1,1,1
2024-02-01 01:20:02+00:00,#0004344,02/01/2024,01:21:29,10.49,3.62,-3.56,14.14,87,-0.943506,7e-006,-1.406057,0.000165,22530.31,-2.6,5730,1914,214.918,66.025,13.493,35.055,35.804,42.5,6.696,909.5,672.5,432.6,13.5358,3.57656,0.045,29.6699,1,Feb,2024,01:24:41,7.86496513492286,0.67,1.2,0,1706750402,2,2,2,4,2,2,2
2024-02-01 01:40:02+00:00,#0004345,02/01/2024,01:41:29,10.5,3.62,-3.56,14.14,87,-0.943639,1.2e-005,-1.403407,0.000134,22097.87,-2.515,5730,1914,214.187,65.801,13.493,35.095,35.844,42.539,6.695,910.8,672.5,432.6,13.5356,3.78182,0.047,31.5683,1,Feb,2024,01:44:41,7.89076207007284,0.67,1.2,0,1706751602,2,2,2,4,2,2,2
2024-02-01 02:00:02+00:00,#0004346,02/01/2024,02:01:29,10.5,3.62,-3.56,14.14,87,-0.943852,6e-006,-1.401838,0.000161,21811.77,-2.562,5730,1914,210.526,64.677,13.494,35.299,36.048,42.744,6.696,917.4,672.5,432.6,13.5374,3.77328,0.045,31.4875,1,Feb,2024,02:04:41,7.88584685308814,0.67,1.2,22.44,1706752802,1,1,1,3,1,1,1
2024-02-01 02:20:02+00:00,#0004347,02/01/2024,02:21:29,10.5,3.62,-3.56,14.27,87,-0.943916,1e-005,-1.398881,0.000154,21555.39,-2.504,5730,1914,206.025,63.297,13.496,35.554,36.303,42.999,6.696,925.7,672.5,432.5,13.5397,3.79428,0.042,31.6807,1,Feb,2024,02:24:41,7.88559034982374,0.67,1.2,0,1706754002,2,2,2,4,2,2,2
2024-02-01 02:40:02+00:00,#0004348,02/01/2024,02:41:29,10.49,3.62,-3.56,14.14,87,-0.94386,1.7e-005,-1.400559,0.000125,21838.72,-2.491,5730,1914,207.3,63.684,13.493,35.482,36.231,42.928,6.697,923.4,672.5,432.6,13.5365,3.77081,0.039,31.4653,1,Feb,2024,02:44:41,7.88538241165851,0.73,1.2,0.0266666666666667,1706755202,2,2,2,4,2,2,2
2024-02-01 03:00:02+00:00,#0004349,02/01/2024,03:01:29,10.49,3.62,-3.56,14.14,87,-0.943847,1.1e-005,-1.400386,0.000114,22231.48,-2.605,5730,1914,209.73,64.431,13.493,35.344,36.093,42.786,6.693,918.8,672.4,432.6,13.5366,3.75164,0.036,31.2874,1,Feb,2024,03:04:41,7.88300904139239,0.73,1.2,0,1706756402,2,2,2,2,2,2,2
2024-02-01 03:20:01+00:00,#0004350,02/01/2024,03:21:28,10.48,3.62,-3.56,14.14,87,-0.943978,1.2e-005,-1.397041,0.000128,21849.39,-2.59,5730,1914,207.383,63.709,13.492,35.478,36.227,42.92,6.693,923,672.4,432.6,13.5362,3.77109,0.037,31.4681,1,Feb,2024,03:24:41,7.8833532593053,0.73,1.2,0,1706757601,2,2,2,2,2,2,2
2024-02-01 03:40:02+00:00,#0004351,02/01/2024,03:41:29,10.49,3.62,-3.56,14.14,87,-0.94418,1.4e-005,-1.402937,0.000126,22236.02,-2.586,5730,1914,203.047,62.377,13.492,35.728,36.477,43.17,6.693,931.1,672.4,432.7,13.536,3.73076,0.035,31.0942,1,Feb,2024,03:44:41,7.87433348180608,0.73,1.2,0,1706758802,2,2,2,3,2,2,2
2024-02-01 04:00:02+00:00,#0004352,02/01/2024,04:01:29,10.49,3.62,-3.56,14.14,87,-0.944047,1.3e-005,-1.397038,0.000107,21712.7,-2.709,5730,1914,202.334,62.153,13.489,35.771,36.52,43.216,6.696,932.6,672.4,432.8,13.5331,3.71832,0.037,30.9812,1,Feb,2024,04:04:41,7.87500490233023,0.73,1.2,42.3866666666667,1706760002,1,1,1,1,1,1,1
2024-02-01 04:20:02+00:00,#0004353,02/01/2024,04:21:29,10.48,3.62,-3.56,14.14,87,-0.943754,1.1e-005,-1.392348,0.000143,21085.97,-2.573,5730,1914,205.616,63.149,13.48,35.585,36.334,43.027,6.693,926.6,672.5,433.1,13.5237,3.79692,0.048,31.7185,1,Feb,2024,04:24:41,7.89093157555443,0.79,1.2,0,1706761202,2,2,2,2,2,2,2
2024-02-01 04:40:02+00:00,#0004354,02/01/2024,04:41:29,10.49,3.62,-3.56,14.02,87,-0.943441,1.2e-005,-1.391186,0.000146,20985.55,-2.527,5730,1914,208.348,63.942,13.447,35.443,36.192,42.881,6.689,921.9,672.5,434.1,13.491,3.74944,0.046,31.3043,1,Feb,2024,04:44:41,7.89217913828373,0.85,1.2,0,1706762402,2,2,2,3,2,2,2
2024-02-01 05:00:02+00:00,#0004355,02/01/2024,05:01:29,10.49,3.62,-3.56,14.02,87,-0.942919,8e-006,-1.387901,0.000126,20745.71,-2.59,5730,1914,212.883,65.284,13.413,35.203,35.952,42.64,6.687,914.1,672.7,435.2,13.458,3.81998,0.05,31.988,1,Feb,2024,05:04:41,7.91130007060397,0.91,1.2,0,1706763602,2,2,2,2,2,2,2
2024-02-01 05:20:02+00:00,#0004356,02/01/2024,05:21:29,10.5,3.62,-3.56,14.14,87,-0.942186,1.6e-005,-1.384542,0.000147,20621.77,-2.546,5730,1914,218.988,67.115,13.385,34.882,35.631,42.314,6.684,904,673.1,436.1,13.4336,3.74744,0.052,31.3328,1,Feb,2024,05:24:41,7.9128120376792,1.16,1.2,0.0133333333333333,1706764802,2,2,2,3,2,2,2
2024-02-01 05:40:02+00:00,#0004357,02/01/2024,05:41:29,10.53,3.62,-3.56,14.27,87,-0.941631,1.2e-005,-1.380857,0.000157,20606.48,-2.541,5730,1914,224.197,68.666,13.356,34.617,35.366,42.052,6.686,895.5,673.3,437.1,13.4046,3.8205,0.054,32.0377,1,Feb,2024,05:44:41,7.9308346678952,1.16,1.2,0,1706766002,2,2,2,4,2,2,2
2024-02-01 06:00:02+00:00,#0004358,02/01/2024,06:01:29,10.5,3.62,-3.56,14.02,88,-0.941365,1.1e-005,-1.382584,0.000162,20705.38,-2.61,5730,1914,227.815,69.737,13.332,34.439,35.188,41.874,6.685,889.5,673.6,437.8,13.3846,3.74923,0.054,31.3897,1,Feb,2024,06:04:41,7.92986301992136,1.22,1.2,43.8666666666667,1706767202,1,1,1,4,1,1,1
2024-02-01 06:20:02+00:00,#0004359,02/01/2024,06:21:29,10.5,3.62,-3.56,14.14,88,-0.941281,1.4e-005,-1.383845,0.000162,20770.35,-2.536,5730,1914,228.692,69.992,13.323,34.398,35.147,41.831,6.684,888.3,673.8,438.1,13.3815,3.76717,0.051,31.5595,1,Feb,2024,06:24:41,7.93199941907413,1.22,1.2,10.0133333333333,1706768402,1,1,1,4,1,1,1
2024-02-01 06:40:02+00:00,#0004360,02/01/2024,06:41:29,10.48,3.62,-3.56,13.89,87,-0.941139,1.3e-005,-1.381106,0.000172,20669.89,-2.588,5730,1914,228.979,70.109,13.342,34.375,35.124,41.808,6.684,887.4,673.9,437.5,13.3989,3.67503,0.053,30.6883,1,Feb,2024,06:44:41,7.92547269009544,1.22,1.2,8.98666666666667,1706769602,1,1,1,4,1,1,1
2024-02-01 07:00:02+00:00,#0004361,02/01/2024,07:01:29,10.5,3.62,-3.56,13.76,87,-0.941016,1.9e-005,-1.383225,0.00017,20719.37,-2.592,5730,1914,232.013,71.075,13.365,34.21,34.959,41.642,6.683,881.9,673.9,436.8,13.4239,3.82057,0.057,32.0221,1,Feb,2024,07:04:41,7.9491436018844,1.22,1.2,8.94666666666667,1706770802,1,1,1,4,1,1,1
2024-02-01 07:20:02+00:00,#0004362,02/01/2024,07:21:29,10.5,3.62,-3.56,14.14,88,-0.940847,1.4e-005,-1.38268,0.000207,20780.98,-2.611,5730,1914,234.056,71.705,13.368,34.106,34.855,41.539,6.685,878.5,673.6,436.7,13.4226,3.63085,0.056,30.2598,1,Feb,2024,07:24:41,7.92045510854521,1.22,1.2,8.53333333333333,1706772002,1,1,1,4,1,1,1
2024-02-01 07:40:01+00:00,#0004363,02/01/2024,07:41:28,10.49,3.62,-3.56,13.63,88,-0.940791,1.7e-005,-1.381223,0.000176,20769.65,-2.592,5730,1914,233.714,71.567,13.347,34.132,34.881,41.568,6.687,879.4,673.6,437.3,13.4016,3.74422,0.052,31.329,1,Feb,2024,07:44:41,7.94496494980382,1.22,0.96,5.18666666666667,1706773201,1,1,1,4,1,1,1
2024-02-01 08:00:02+00:00,#0004364,02/01/2024,08:01:28,10.47,3.62,-3.56,13.76,88,-0.940726,1.2e-005,-1.383379,0.000185,20729.43,-2.646,5730,1914,236.84,72.527,13.349,33.975,34.724,41.413,6.689,874.1,673.7,437.3,13.4063,3.74962,0.054,31.3755,1,Feb,2024,08:04:41,7.94481561670193,1.1,1.2,4.44,1706774402,1,1,1,4,1,1,1
2024-02-01 08:20:02+00:00,#0004365,02/01/2024,08:21:29,10.5,3.62,-3.56,14.14,88,-0.940726,1e-005,-1.382694,0.00021,20691.02,-2.596,5730,1914,234.207,71.754,13.37,34.097,34.846,41.542,6.696,878.2,673.8,436.6,13.4291,3.69425,0.05,30.8423,1,Feb,2024,08:24:41,7.93121710169667,1.1,1.2,0,1706775602,2,2,2,4,2,2,2
2024-02-01 08:40:02+00:00,#0004366,02/01/2024,08:41:29,10.5,3.62,-3.56,14.27,88,-0.940608,1.1e-005,-1.382385,0.000193,20668.23,-2.599,5730,1914,235.445,72.179,13.398,34.023,34.772,41.464,6.693,875.7,673.6,435.7,13.4628,3.63821,0.049,30.2961,1,Feb,2024,08:44:41,7.92322490909106,1.16,1.2,0,1706776802,2,2,2,4,2,2,2
2024-02-01 09:00:02+00:00,#0004367,02/01/2024,09:01:29,10.52,3.62,-3.56,14.27,88,-0.940269,6e-006,-1.378242,0.000132,20456.27,-2.66,5730,1914,237.456,72.805,13.404,33.92,34.669,41.361,6.691,872.1,673.4,435.5,13.463,3.73548,0.046,31.1976,1,Feb,2024,09:04:42,7.94248636536885,1.22,1.2,0,1706778002,2,2,2,4,2,2,2
2024-02-01 09:20:02+00:00,#0004368,02/01/2024,09:21:29,10.48,3.62,-3.56,13.89,88,-0.940116,1.1e-005,-1.378431,0.000166,20351.29,-2.585,5730,1914,241.861,74.177,13.417,33.7,34.449,41.14,6.692,865,673.3,435.1,13.4744,3.74441,0.045,31.2712,1,Feb,2024,09:24:41,7.95202470477776,1.22,1.2,0,1706779202,2,2,2,3,2,2,2
2024-02-01 09:40:02+00:00,#0004369,02/01/2024,09:41:29,10.5,3.62,-3.56,14.02,88,-0.939988,5e-006,-1.377635,0.000167,20336.45,-2.545,5730,1914,243.405,74.65,13.417,33.625,34.374,41.066,6.692,862.3,673.1,435.1,13.4714,3.77304,0.047,31.5398,1,Feb,2024,09:44:41,7.95622228086465,1.22,0.96,0,1706780402,2,2,2,2,2,2,2
2024-02-01 10:00:02+00:00,#0004370,02/01/2024,10:01:28,10.51,3.62,-3.56,14.14,88,-0.94003,1.2e-005,-1.378756,0.000171,20475.85,-2.63,5730,1914,242.898,74.48,13.408,33.654,34.403,41.095,6.693,863.3,673,435.4,13.4613,3.45833,0.048,28.6396,1,Feb,2024,10:04:41,7.9102472122205,1.22,0.96,0,1706781602,2,2,2,4,2,2,2
2024-02-01 10:20:02+00:00,#0004371,02/01/2024,10:21:28,10.49,3.62,-3.56,14.4,88,-0.940018,2.7e-005,-1.379779,0.000167,20510.29,-2.594,5730,1914,243.525,74.677,13.411,33.622,34.371,41.063,6.692,862.1,673,435.3,13.4662,3.43571,0.049,28.4285,1,Feb,2024,10:24:41,7.9032961664922,1.16,1.2,0,1706782802,2,2,2,3,2,2,2
2024-02-01 10:40:02+00:00,#0004372,02/01/2024,10:41:28,10.48,3.62,-3.56,13.89,88,-0.940183,9e-006,-1.379635,0.000181,20528.71,-2.622,5730,1914,243.246,74.617,13.426,33.629,34.378,41.07,6.693,862.6,673.1,434.8,13.4814,3.52561,0.049,29.2428,1,Feb,2024,10:44:41,7.92055908524729,1.1,1.2,16.48,1706784002,1,1,1,1,1,1,1
2024-02-01 11:00:02+00:00,#0004373,02/01/2024,11:01:29,10.5,3.62,-3.56,14.14,88,-0.940313,7e-006,-1.379013,0.000158,20369.45,-2.633,5730,1914,240.347,73.741,13.434,33.765,34.514,41.202,6.688,867.1,672.9,434.5,13.4891,3.6751,0.05,30.6165,1,Feb,2024,11:04:41,7.93512392630292,1.1,1.2,17.1333333333333,1706785202,1,1,1,4,1,1,1
2024-02-01 11:20:02+00:00,#0004374,02/01/2024,11:21:28,10.5,3.62,-3.56,14.14,88,-0.940565,1.4e-005,-1.382098,0.000217,20393.35,-2.63,5730,1914,238.656,73.213,13.429,33.85,34.599,41.287,6.687,869.7,672.7,434.7,13.4798,3.75384,0.052,31.3544,1,Feb,2024,11:24:41,7.94156474724093,0.97,1.2,13.0933333333333,1706786402,1,1,1,4,1,1,1
2024-02-01 11:40:02+00:00,#0004375,02/01/2024,11:41:29,10.49,3.62,-3.56,14.02,88,-0.940573,1.1e-005,-1.381768,0.000159,20362.85,-2.651,5730,1914,237.544,72.848,13.414,33.912,34.661,41.348,6.688,871.6,672.6,435.2,13.4647,3.76083,0.053,31.4317,1,Feb,2024,11:44:42,7.94437676973669,1.04,1.69,0,1706787602,2,2,2,4,2,2,2
2024-02-01 12:00:02+00:00,#0004376,02/01/2024,12:01:29,10.51,3.62,-3.56,14.02,88,-0.940801,9e-006,-1.380895,0.000143,20156.14,-2.637,5730,1914,234.412,71.845,13.387,34.079,34.828,41.516,6.688,877.1,672.6,436,13.4387,3.76459,0.052,31.4881,1,Feb,2024,12:04:41,7.9411994105177,1.1,1.44,0,1706788802,2,2,2,3,2,2,2
2024-02-01 12:20:02+00:00,#0004377,02/01/2024,12:21:28,10.49,3.62,-3.56,14.02,88,-0.940931,1.4e-005,-1.380961,0.000175,19902.93,-2.599,5730,1914,230.697,70.714,13.392,34.265,35.014,41.697,6.683,883.1,672.8,435.9,13.443,3.76546,0.054,31.4927,1,Feb,2024,12:24:41,7.93898508505183,1.04,1.44,9.21333333333333,1706790002,1,1,1,3,1,1,1
2024-02-01 12:40:02+00:00,#0004378,02/01/2024,12:41:28,10.49,3.62,-3.56,14.02,88,-0.941028,9e-006,-1.381887,0.000164,19681.51,-2.584,5730,1914,230.753,70.74,13.398,34.259,35.008,41.69,6.682,882.8,672.8,435.7,13.4502,3.74138,0.055,31.2629,1,Feb,2024,12:44:41,7.93392067932087,1.04,1.69,37.4,1706791202,1,1,1,1,1,1,1
2024-02-01 13:00:02+00:00,#0004379,02/01/2024,13:01:29,10.5,3.62,-3.56,14.14,88,-0.941098,1e-005,-1.383016,0.000189,19762.68,-2.667,5730,1914,229.882,70.472,13.397,34.304,35.053,41.73,6.677,884.3,672.8,435.7,13.4489,3.47324,0.055,28.7859,1,Feb,2024,13:04:41,7.8937609179529,0.97,1.44,0,1706792402,2,2,2,2,2,2,2
2024-02-01 13:20:02+00:00,#0004380,02/01/2024,13:21:29,10.5,3.62,-3.56,14.02,88,-0.941338,8e-006,-1.383861,0.000182,19761.84,-2.605,5730,1914,226.637,69.491,13.406,34.467,35.216,41.893,6.677,889.6,672.7,435.4,13.4567,3.7172,0.054,31.0329,1,Feb,2024,13:24:41,7.92510232964714,0.97,1.69,0,1706793602,2,2,2,2,2,2,2
2024-02-01 13:40:02+00:00,#0004381,02/01/2024,13:41:29,10.49,3.62,-3.56,13.89,88,-0.941444,1.4e-005,-1.383751,0.000151,19742.78,-2.583,5730,1914,226.07,69.32,13.408,34.496,35.245,41.917,6.672,890.8,672.7,435.4,13.4619,3.72361,0.054,31.0882,1,Feb,2024,13:44:41,7.9260200438474,0.91,1.69,7.64,1706794802,1,1,1,1,1,1,1
2024-02-01 14:00:02+00:00,#0004382,02/01/2024,14:01:29,10.49,3.62,-3.56,14.02,88,-0.941525,9e-006,-1.389055,0.000154,19793.31,-2.683,5730,1914,224.728,68.903,13.404,34.568,35.317,41.99,6.673,892.9,672.6,435.5,13.455,3.73087,0.056,31.1612,1,Feb,2024,14:04:41,7.92370633743794,0.85,1.93,0,1706796002,2,2,2,4,2,2,2
2024-02-01 14:20:02+00:00,#0004383,02/01/2024,14:21:28,10.52,3.62,-3.56,14.27,88,-0.941905,9e-006,-1.390733,0.000149,19834.3,-2.665,5730,1914,223.388,68.479,13.396,34.642,35.391,42.064,6.673,895.4,672.5,435.8,13.4451,3.73471,0.058,31.2051,1,Feb,2024,14:24:41,7.91390944825713,0.91,2.17,2.96,1706797202,1,1,1,4,1,1,1
2024-02-01 14:40:02+00:00,#0004384,02/01/2024,14:41:29,10.48,3.62,-3.56,13.89,88,-0.942088,1.4e-005,-1.391001,0.000159,19836.07,-2.584,5730,1914,221.583,67.91,13.386,34.742,35.491,42.168,6.677,898.6,672.6,436.1,13.438,3.70476,0.06,30.9326,1,Feb,2024,14:44:41,7.91242089724889,0.85,2.41,6.86666666666667,1706798402,1,1,1,4,1,1,1
2024-02-01 15:00:02+00:00,#0004385,02/01/2024,15:01:28,10.48,3.62,-3.56,13.89,88,-0.942273,1e-005,-1.390283,0.000121,19808.03,-2.619,5730,1914,217.985,66.81,13.387,34.935,35.684,42.361,6.677,904.5,672.5,436.1,13.438,3.71055,0.059,30.9864,1,Feb,2024,15:04:41,7.90996577972448,0.79,2.41,0,1706799602,2,2,2,2,2,2,2
2024-02-01 15:20:02+00:00,#0004386,02/01/2024,15:21:29,10.5,3.62,-3.56,13.89,88,-0.942578,8e-006,-1.394573,0.000124,19716.83,-2.594,5730,1914,216.661,66.409,13.39,35.005,35.754,42.429,6.674,906.7,672.6,435.9,13.4393,3.61609,0.06,30.11,1,Feb,2024,15:24:41,7.89159664820009,0.79,1.93,0,1706800802,2,2,2,2,2,2,2
2024-02-01 15:40:02+00:00,#0004387,02/01/2024,15:41:28,10.49,3.62,-3.56,13.89,88,-0.94259,8e-006,-1.390771,0.000159,19525.69,-2.614,5730,1914,217.072,66.519,13.379,34.988,35.737,42.405,6.668,906.2,672.6,436.3,13.4255,3.40541,0.063,28.1808,1,Feb,2024,15:44:41,7.86194867493486,0.79,2.41,21.9066666666667,1706802002,1,1,1,1,1,1,1
2024-02-01 16:00:02+00:00,#0004388,02/01/2024,16:01:29,10.48,3.62,-3.56,13.89,88,-0.942453,8e-006,-1.387673,0.000143,19347.84,-2.659,5730,1914,218.006,66.795,13.372,34.94,35.689,42.364,6.674,904.7,672.6,436.5,13.4193,3.39996,0.065,28.1354,1,Feb,2024,16:04:41,7.86364679220281,0.85,2.41,0,1706803202,2,2,2,2,2,2,2
2024-02-01 16:20:02+00:00,#0004389,02/01/2024,16:21:28,10.51,3.62,-3.56,14.4,88,-0.942255,1.2e-005,-1.387784,0.000132,19483.86,-2.607,5730,1914,222.692,68.236,13.376,34.688,35.437,42.11,6.673,896.5,672.6,436.4,13.4257,3.43094,0.068,28.4148,1,Feb,2024,16:24:41,7.86387696619345,0.85,2.17,3.8,1706804402,1,1,1,3,1,1,1
2024-02-01 16:40:02+00:00,#0004390,02/01/2024,16:41:29,10.53,3.62,-3.56,14.4,88,-0.942066,1e-005,-1.383107,0.000151,19538.98,-2.632,5730,1914,226.523,69.389,13.363,34.493,35.242,41.912,6.67,890.1,672.5,436.8,13.4132,3.40176,0.069,28.1564,1,Feb,2024,16:44:41,7.86318443318538,0.91,2.41,3.69333333333333,1706805602,1,1,1,4,1,1,1
2024-02-01 17:00:02+00:00,#0004391,02/01/2024,17:01:28,10.49,3.62,-3.56,13.89,88,-0.942081,8e-006,-1.385107,0.000177,19585.74,-2.646,5730,1914,227.66,69.726,13.355,34.437,35.186,41.857,6.671,888.2,672.5,437.1,13.4036,3.5419,0.071,29.4526,1,Feb,2024,17:04:41,7.89042111291536,0.79,2.41,7.86666666666667,1706806802,1,1,1,4,1,1,1
2024-02-01 17:20:02+00:00,#0004392,02/01/2024,17:21:28,10.51,3.62,-3.56,14.14,88,-0.942043,1.5e-005,-1.389081,0.000137,19663.94,-2.73,5730,1914,224.663,68.801,13.351,34.595,35.344,42.016,6.672,893.5,672.6,437.2,13.4041,3.43338,0.074,28.4533,1,Feb,2024,17:24:41,7.87205927119039,0.85,2.41,35.84,1706808002,1,1,1,1,1,1,1
2024-02-01 17:40:02+00:00,#0004393,02/01/2024,17:41:28,10.5,3.62,-3.56,14.14,88,-0.942085,5e-006,-1.388639,0.000161,19718.43,-2.637,5730,1914,225.152,68.956,13.354,34.568,35.317,41.99,6.673,892.6,672.6,437.1,13.4054,3.45446,0.074,28.646,1,Feb,2024,17:44:41,7.87429554839145,0.85,2.65,8.09333333333333,1706809202,1,1,1,4,1,1,1
2024-02-01 18:00:02+00:00,#0004394,02/01/2024,18:01:28,10.5,3.62,-3.56,13.89,88,-0.941985,1e-005,-1.388613,0.000177,19785.71,-2.691,5730,1914,221.751,67.932,13.366,34.742,35.491,42.153,6.662,898.1,672.6,436.7,13.4195,3.53369,0.077,29.3646,1,Feb,2024,18:04:41,7.89077152125024,0.85,2.89,16.4266666666667,1706810402,1,1,1,4,1,1,1
2024-02-01 18:20:02+00:00,#0004395,02/01/2024,18:21:29,10.49,3.62,-3.56,14.14,88,-0.941911,1.4e-005,-1.391152,0.000152,19900.73,-2.663,5730,1914,222.364,68.14,13.379,34.704,35.453,42.117,6.664,896.9,672.5,436.3,13.4338,3.51241,0.079,29.1577,1,Feb,2024,18:24:41,7.88518389696636,0.85,2.89,10.12,1706811602,1,1,1,4,1,1,1
2024-02-01 18:40:02+00:00,#0004396,02/01/2024,18:41:29,10.51,3.62,-3.56,14.27,88,-0.94204,1e-005,-1.389366,0.000147,19966.38,-2.628,5730,1914,226.288,69.352,13.386,34.495,35.244,41.91,6.666,890,672.3,436.1,13.4419,3.55561,0.078,29.5495,1,Feb,2024,18:44:42,7.88691927673204,0.85,2.41,7.26666666666667,1706812802,1,1,1,4,1,1,1
2024-02-01 19:00:01+00:00,#0004397,02/01/2024,19:01:28,10.5,3.62,-3.56,13.89,88,-0.942037,6e-006,-1.389783,0.000132,20038.25,-2.691,5730,1914,227.304,69.684,13.399,34.436,35.185,41.851,6.666,888.1,672.3,435.7,13.4506,3.57657,0.078,29.7361,1,Feb,2024,19:04:41,7.89547920898934,0.79,2.65,2.62666666666667,1706814001,1,1,1,3,1,1,1
2024-02-01 19:20:02+00:00,#0004398,02/01/2024,19:21:28,10.51,3.62,-3.56,13.89,89,-0.942092,1.3e-005,-1.390042,0.000171,20073.9,-2.733,5730,1914,224.938,68.985,13.416,34.552,35.301,41.967,6.666,891.8,672.2,435.1,13.4695,3.60566,0.076,29.99,1,Feb,2024,19:24:41,7.89833165893779,0.79,2.89,11,1706815202,1,1,1,3,1,1,1
2024-02-01 19:40:02+00:00,#0004399,02/01/2024,19:41:29,10.51,3.62,-3.56,14.14,88,-0.942045,1.9e-005,-1.392794,0.000183,20079.43,-2.67,5730,1914,223.473,68.567,13.437,34.62,35.369,42.033,6.665,894,672,434.4,13.4892,3.73187,0.074,31.1427,1,Feb,2024,19:44:41,7.91249936130773,0.85,2.89,5.49333333333333,1706816402,1,1,1,1,1,1,1
2024-02-01 20:00:02+00:00,#0004400,02/01/2024,20:01:28,10.48,3.62,-3.56,13.63,89,-0.942156,1.5e-005,-1.393793,0.000189,20204.14,-2.579,5730,1914,223.401,68.556,13.443,34.62,35.369,42.039,6.67,893.9,671.8,434.2,13.4947,3.44747,0.072,28.515,1,Feb,2024,20:04:41,7.87862745419753,0.79,2.89,7.77333333333333,1706817602,1,1,1,1,1,1,1
2024-02-01 20:20:02+00:00,#0004401,02/01/2024,20:21:29,10.53,3.62,-3.57,14.4,89,-0.942125,1.3e-005,-1.392321,0.00015,20239.63,-2.611,5730,1914,223.617,68.641,13.456,34.603,35.352,42.023,6.67,893.4,671.7,433.8,13.5075,3.72248,0.072,31.0406,1,Feb,2024,20:24:41,7.9056795677802,0.79,2.65,19.8666666666667,1706818802,1,1,1,1,1,1,1
2024-02-01 20:40:02+00:00,#0004402,02/01/2024,20:41:29,10.49,3.62,-3.56,14.02,88,-0.942076,1.1e-005,-1.394653,0.000158,20324.76,-2.624,5730,1914,224.702,68.995,13.47,34.54,35.289,41.956,6.666,891.3,671.6,433.4,13.5206,3.73597,0.069,31.155,1,Feb,2024,20:44:41,7.91394524253975,0.79,2.65,6.56,1706820002,1,1,1,3,1,1,1
2024-02-01 21:00:02+00:00,#0004403,02/01/2024,21:01:28,10.49,3.62,-3.56,14.14,88,-0.942224,1.5e-005,-1.391866,0.000166,20395.04,-2.643,5730,1914,221.861,68.143,13.483,34.684,35.433,42.1,6.666,895.9,671.4,432.9,13.5341,3.51369,0.069,29.093,1,Feb,2024,21:04:41,7.87870686222052,0.73,2.17,5.53333333333333,1706821202,1,1,1,4,1,1,1
2024-02-01 21:20:02+00:00,#0004404,02/01/2024,21:21:29,10.5,3.62,-3.56,14.53,89,-0.942025,1.3e-005,-1.392231,0.000155,20474.01,-2.638,5730,1914,221.661,68.092,13.49,34.692,35.441,42.107,6.666,895.9,671.4,432.7,13.5412,3.72439,0.067,31.0309,1,Feb,2024,21:24:42,7.90533134409443,0.79,1.93,7.81333333333333,1706822402,1,1,1,4,1,1,1
2024-02-01 21:40:02+00:00,#0004405,02/01/2024,21:41:29,10.52,3.62,-3.56,14.4,89,-0.941618,1.4e-005,-1.390042,0.000163,20490.09,-2.666,5730,1914,226.767,69.663,13.491,34.423,35.172,41.843,6.671,887.2,671.3,432.7,13.5426,3.6115,0.065,29.9864,1,Feb,2024,21:44:41,7.89893694581179,0.79,1.69,8.24,1706823602,1,1,1,4,1,1,1
2024-02-01 22:00:01+00:00,#0004406,02/01/2024,22:01:28,10.48,3.62,-3.56,13.89,88,-0.941583,9e-006,-1.392547,0.000201,20540.51,-2.691,5730,1914,228.05,70.058,13.492,34.356,35.105,41.772,6.667,885,671.1,432.6,13.5436,3.56824,0.066,29.5872,1,Feb,2024,22:04:41,7.90120264328183,0.85,1.69,5.81333333333333,1706824801,1,1,1,4,1,1,1
2024-02-01 22:20:01+00:00,#0004407,02/01/2024,22:21:28,10.53,3.62,-3.56,14.4,89,-0.941472,1.5e-005,-1.391233,0.000147,20562.49,-2.718,5730,1914,227.671,69.938,13.49,34.377,35.126,41.793,6.667,885.5,671.1,432.7,13.5389,3.58506,0.067,29.7457,1,Feb,2024,22:24:41,7.89788475215883,0.85,1.69,0.773333333333333,1706826001,2,2,2,4,2,2,2
2024-02-01 22:40:02+00:00,#0004408,02/01/2024,22:41:28,10.49,3.62,-3.56,14.14,89,-0.941511,1.2e-005,-1.393314,0.000143,20568.69,-2.687,5730,1914,228.974,70.351,13.498,34.306,35.055,41.725,6.67,883.2,671.2,432.5,13.5513,3.40627,0.068,28.0961,1,Feb,2024,22:44:41,7.87584756120575,0.85,1.69,7.8,1706827202,1,1,1,4,1,1,1
2024-02-01 23:00:02+00:00,#0004409,02/01/2024,23:01:28,10.51,3.62,-3.56,14.4,89,-0.941365,5e-006,-1.391758,0.000198,20622.89,-2.645,5730,1914,230.275,70.753,13.499,34.239,34.988,41.653,6.665,880.9,671.1,432.4,13.5529,3.5211,0.068,29.1467,1,Feb,2024,23:04:41,7.8906994329562,0.79,1.69,12.9066666666667,1706828402,1,1,1,3,1,1,1
2024-02-01 23:20:02+00:00,#0004410,02/01/2024,23:21:28,10.5,3.62,-3.56,13.89,89,-0.941317,1.5e-005,-1.391935,0.000183,20603.47,-2.695,5730,1914,232.897,71.56,13.5,34.105,34.854,41.52,6.665,876.5,671,432.4,13.5496,3.54427,0.069,29.3621,1,Feb,2024,23:24:41,7.9024622729916,0.79,1.44,0,1706829602,2,2,2,4,2,2,2
2024-02-01 23:40:02+00:00,#0004411,02/01/2024,23:41:29,10.5,3.62,-3.56,14.14,89,-0.940947,1.2e-005,-1.387509,0.000167,20637.59,-2.612,5730,1914,235.194,72.283,13.511,33.986,34.735,41.397,6.662,872.7,670.9,432,13.5637,3.40213,0.07,28.0492,1,Feb,2024,23:44:42,7.88501036581777,0.97,1.69,5.53333333333333,1706830802,1,1,1,4,1,1,1
2024-02-02 00:00:02+00:00,#0004412,02/02/2024,00:01:28,10.51,3.62,-3.56,14.4,89,-0.940526,1e-005,-1.385405,0.000169,20711.46,-2.614,5730,1914,236.267,72.623,13.518,33.929,34.678,41.339,6.661,870.7,670.9,431.8,13.5755,3.75016,0.072,31.2418,2,Feb,2024,00:04:41,7.93665519800863,0.97,1.44,0,1706832002,2,2,2,4,2,2,2